Location: Byhalia Creek
(34.8270°N, 89.8040°W)
Time: 16:58:07
(UTC+00:00)

Meteor 2-19 Rocket - Pass Details

Date: 22 April 2026
Orbit: 936 x 958 km, 82.5° (Epoch: 9 May)

Event Time Altitude Azimuth Distance (km) Brightness Sun altitude
Rises 00:56:06 0° 355° (N) 3,634 7.8 -4.7°
Reaches altitude 10° 00:58:37 10° 357° (N) 2,682 7.1 -5.2°
Maximum altitude 01:04:45 77° 83° (E) 974 4.4 -6.4°
Drops below altitude 10° 01:10:49 10° 169° (S) 2,651 6.5 -7.5°
Sets 01:13:17 0° 171° (S) 3,589 7.2 -8.0°
